FENGYUN 1C DEB

Satellite information

Favourite Embed

Satellite Type and Status

DEBRISIN ORBIT

Key statistics

Satellite FENGYUN 1C DEB at a glance.

Uptime

9619

Days in orbit

Revolutions

≈ 14.1

Per day

Orbit

SSO

Sun Synchronous Orbit

Inclination

98.5

Latest

Satellite identification and parameters

Extended collection of information and parameters for FENGYUN 1C DEB.

Object identification

Identified? True

Debris? True

Object name: FENGYUN 1C DEB

International designator: 1999-025ALF

Object number (NORAD): 30565

Object ID (CCSDS): 30565

Country: PEOPLES REPUBLIC OF CHINA (PRC)

Current information (Y/N): Y

RCS size: SMALL

Orbital parameters

Period: 102.195 minutes

Inclination: 98.4597 deg

SMA: 7240.67 km

Apoapsis: 965.105 km

Periapsis: 759.965 km

RAAN: 127.1306 deg

Eccentricy: 0.01416582

Argument of periapsis: 269.9719 deg

Mean anomaly: 245.2103 deg

Mean motion: 14.0907658 rev/day

Mean motion (dot): 0.00002932 rev/day2

B* drag term: 0.0015628679 1/REarth

Two-line elements (TLE)

Creation date: Sept. 8, 2025, 9:49 a.m.

Reference frame: TEME

Reference center: EARTH

Epoch: Sept. 8, 2025, 3:42 a.m. UTC

TLE line 0: 0 FENGYUN 1C DEB

TLE line 1: 1 30565U 99025ALF 25251.15450328 .00002932 00000-0 15629-2 0 9998

TLE line 2: 2 30565 98.4597 127.1306 0141658 269.9719 245.2103 14.09076580945804

Live tracking on map

Real-time ground track for satellite FENGYUN 1C DEB.

In-orbit conjunctions

A list of the most updated potential collisions computed for object FENGYUN 1C DEB.

Target Orbit TCA Probability of collision Miss distance Type
CZ-4 DEB SSO 2025-06-25 17:19:04 0.0001221671 55.0 (m) DEBRIS
COSMOS 1110 LEO 2024-08-28 06:40:33 0.0001972258 507.0 (m) PAYLOAD

Associated space launch

Chinese polar orbiting meteorological satellite

FENGYUN 1C DEB was lifted into orbit during the mission ‘Long March 4B | Feng Yun 1C’, on board a Long March 4B space rocket.

The launch took place on May 10, 1999, 1:33 a.m. from Launch Complex 7.

For more information about the launch, click the button.

Launch to space Long March 4B | Feng Yun 1C
Long March 4B | Feng Yun 1C

Agency: N/A

Status: Launch Successful

Launch date: May 10, 1999, 1:33 a.m. UTC

Rocket: Long March 4B

Launch pad: Launch Complex 7

Location: Taiyuan Satellite Launch Center, People's Republic of China

...

Latest news about this satellite

There are no fresh news available about this satellite. Check back as we update our databases every day.


Newsletter sign-up

Weekly statistics, charts and insights to help you stay on top of the space industry.